星链-36361(STARLINK-36361)

导读 | 豆包AI

STARLINK-36361是美国SpaceX公司星链(Starlink)星座的成员卫星,于2026年2月21日发射入轨。作为低地球轨道(LEO)宽带互联网卫星,它承担为全球偏远、基础设施匮乏区域提供高速低延迟网络服务的任务,支持视频通话、在线游戏等应用,是星链全球互联网覆盖布局的最新组成部分,助力星座规模持续扩容与服务能力升级。

基本信息
目录编号:
67900
目录名称:
STARLINK-36361
国际标识:
2026-035X
轨道中心:
EARTH
卫星名称:
星链-36361
卫星全名:
星链-36361(STARLINK-36361)
卫星状态:
在轨 (已飞行93 天)
发射日期:
2026-02-21 UTC
国别 :
美国 (US)
星等 :
--
轨道信息
数据来源 国际轨道数据
星历时间: 2026-05-25T10:34:58+0800
6小时前
查看轨道信息
半长轴: 6843.632km
偏心率: 0.0001035
轨道倾角: 97.286°
近地点辐角 61.575°
升交点赤经 78.700°
平近点角 298.560°
近地点: 464.786km
远地点: 466.204km
周期: 93.905分钟
每日圈数: 15.334614
详细信息
固有亮度:
5
最大亮度:
2.5
卫星平台:
Starlink V1.0
覆盖范围:
全球
运营商:
太空探索技术公司
运营商所在国:
美国
制造商(研发单位):
太空探索技术公司
制造商所在国:
美国
使用方式:
暂无
卫星简介
Starlink 计划是 SpaceX 推出的全球卫星互联网项目,通过发射低轨道卫星,为全球尤其是偏远地区提供高速、低延迟的互联网服务。自 2019 年起,Starlink 已部署数千颗卫星,旨在缩小全球数字鸿沟,推动互联网普及。该项目还为军事、航空等行业提供通信支持,带来广泛经济效益。
2D轨道图
3D轨道图
轨道高度分析图
轨道倾角分析图
轨道综合分析图
查看轨道综合分析图